Time,TemperatureF,DewpointF,PressureIn,WindDirection,WindDirectionDegrees,WindSpeedMPH,WindSpeedGustMPH,Humidity,HourlyPrecipIn,Conditions,Clouds,dailyrainin,SolarRadiationWatts/m^2,SoftwareType,DateUTC
2013-09-10 00:10:00,81.1,74.7,29.86,North,-999,0.0,0.0,81,0.00,,,-99.99,0,WeatherLink 5.4,2013-09-10 04:10:00,
2013-09-10 00:14:00,81.1,74.7,29.86,North,-999,0.0,0.0,81,0.00,,,-99.99,0,WeatherLink 5.4,2013-09-10 04:14:00,
2013-09-10 00:29:00,81.1,74.3,29.85,North,-999,0.0,0.0,80,0.00,,,-99.99,0,WeatherLink 5.4,2013-09-10 04:29:00,
2013-09-10 00:30:00,80.9,74.1,29.86,North,-999,0.0,0.0,80,0.00,,,-99.99,0,WeatherLink 5.4,2013-09-10 04:30:00,
2013-09-10 00:40:00,80.7,74.3,29.86,North,-999,0.0,0.0,81,0.00,,,-99.99,0,WeatherLink 5.4,2013-09-10 04:40:00,
2013-09-10 00:44:00,80.7,74.3,29.86,North,-999,0.0,0.0,81,0.00,,,-99.99,0,WeatherLink 5.4,2013-09-10 04:44:00,
2013-09-10 00:59:00,80.4,74.4,29.85,North,-999,0.0,0.0,82,0.00,,,-99.99,0,WeatherLink 5.4,2013-09-10 04:59:00,
2013-09-10 01:00:00,80.2,74.6,29.85,ESE,112,0.0,1.0,83,0.00,,,-99.99,0,WeatherLink 5.4,2013-09-10 05:00:00,
2013-09-10 01:10:00,80.1,74.5,29.85,North,-999,0.0,0.0,83,0.00,,,-99.99,0,WeatherLink 5.4,2013-09-10 05:10:00,
2013-09-10 01:14:00,80.1,74.5,29.85,North,-999,0.0,0.0,83,0.00,,,-99.99,0,WeatherLink 5.4,2013-09-10 05:14:00,
2013-09-10 01:29:00,79.9,73.9,29.85,North,-999,0.0,0.0,82,0.00,,,-99.99,0,WeatherLink 5.4,2013-09-10 05:29:00,
2013-09-10 01:30:00,79.7,73.7,29.85,North,-999,0.0,0.0,82,0.00,,,-99.99,0,WeatherLink 5.4,2013-09-10 05:30:00,
2013-09-10 01:40:00,79.3,73.3,29.85,North,-999,0.0,0.0,82,0.00,,,-99.99,0,WeatherLink 5.4,2013-09-10 05:40:00,
2013-09-10 01:45:00,79.3,73.3,29.85,North,-999,0.0,0.0,82,0.00,,,-99.99,0,WeatherLink 5.4,2013-09-10 05:45:00,
2013-09-10 01:59:00,78.9,73.3,29.84,North,-999,0.0,0.0,83,0.00,,,-99.99,0,WeatherLink 5.4,2013-09-10 05:59:00,
2013-09-10 02:00:00,78.6,73.4,29.84,North,-999,0.0,0.0,84,0.00,,,-99.99,0,WeatherLink 5.4,2013-09-10 06:00:00,
2013-09-10 02:10:00,78.4,73.5,29.84,North,-999,0.0,0.0,85,0.00,,,-99.99,0,WeatherLink 5.4,2013-09-10 06:10:00,
2013-09-10 02:14:00,78.4,73.5,29.84,North,-999,0.0,0.0,85,0.00,,,-99.99,0,WeatherLink 5.4,2013-09-10 06:14:00,
2013-09-10 02:29:00,78.0,73.1,29.83,North,-999,0.0,0.0,85,0.00,,,-99.99,0,WeatherLink 5.4,2013-09-10 06:29:00,
2013-09-10 02:30:00,77.7,73.2,29.83,North,-999,0.0,0.0,86,0.00,,,-99.99,0,WeatherLink 5.4,2013-09-10 06:30:00,
2013-09-10 02:40:00,77.6,73.1,29.83,North,-999,0.0,0.0,86,0.00,,,-99.99,0,WeatherLink 5.4,2013-09-10 06:40:00,
2013-09-10 02:44:00,77.6,73.1,29.83,North,-999,0.0,0.0,86,0.00,,,-99.99,0,WeatherLink 5.4,2013-09-10 06:44:00,
2013-09-10 02:59:00,77.4,73.2,29.83,North,-999,0.0,0.0,87,0.00,,,-99.99,0,WeatherLink 5.4,2013-09-10 06:59:00,
2013-09-10 03:00:00,77.3,73.1,29.83,North,-999,0.0,0.0,87,0.00,,,-99.99,0,WeatherLink 5.4,2013-09-10 07:00:00,
2013-09-10 03:10:00,77.1,72.9,29.83,North,-999,0.0,0.0,87,0.00,,,-99.99,0,WeatherLink 5.4,2013-09-10 07:10:00,
2013-09-10 03:14:00,77.1,72.9,29.83,North,-999,0.0,0.0,87,0.00,,,-99.99,0,WeatherLink 5.4,2013-09-10 07:14:00,
2013-09-10 03:29:00,77.0,73.2,29.83,North,-999,0.0,0.0,88,0.00,,,-99.99,0,WeatherLink 5.4,2013-09-10 07:29:00,
2013-09-10 03:30:00,76.8,73.0,29.83,North,-999,0.0,0.0,88,0.00,,,-99.99,0,WeatherLink 5.4,2013-09-10 07:30:00,
2013-09-10 03:40:00,76.6,72.8,29.83,North,-999,0.0,0.0,88,0.00,,,-99.99,0,WeatherLink 5.4,2013-09-10 07:40:00,
2013-09-10 03:44:00,76.6,72.8,29.83,North,-999,0.0,0.0,88,0.00,,,-99.99,0,WeatherLink 5.4,2013-09-10 07:44:00,
2013-09-10 03:59:00,76.5,72.7,29.83,North,-999,0.0,0.0,88,0.00,,,-99.99,0,WeatherLink 5.4,2013-09-10 07:59:00,
2013-09-10 04:00:00,76.3,72.5,29.83,North,-999,0.0,0.0,88,0.00,,,-99.99,0,WeatherLink 5.4,2013-09-10 08:00:00,
2013-09-10 04:10:00,76.3,72.5,29.83,North,-999,0.0,0.0,88,0.00,,,-99.99,0,WeatherLink 5.4,2013-09-10 08:10:00,
2013-09-10 04:14:00,76.3,72.5,29.83,North,-999,0.0,0.0,88,0.00,,,-99.99,0,WeatherLink 5.4,2013-09-10 08:14:00,
2013-09-10 04:29:00,76.1,72.6,29.83,North,-999,0.0,0.0,89,0.00,,,-99.99,0,WeatherLink 5.4,2013-09-10 08:29:00,
2013-09-10 04:30:00,76.0,72.5,29.83,North,-999,0.0,0.0,89,0.00,,,-99.99,0,WeatherLink 5.4,2013-09-10 08:30:00,
2013-09-10 04:40:00,75.9,72.4,29.83,North,-999,0.0,0.0,89,0.00,,,-99.99,0,WeatherLink 5.4,2013-09-10 08:40:00,
2013-09-10 04:45:00,75.9,72.4,29.83,North,-999,0.0,0.0,89,0.00,,,-99.99,0,WeatherLink 5.4,2013-09-10 08:45:00,
2013-09-10 04:50:00,75.8,72.3,29.83,North,-999,0.0,0.0,89,0.00,,,-99.99,0,WeatherLink 5.4,2013-09-10 08:50:00,
2013-09-10 05:00:00,75.6,72.1,29.84,North,-999,0.0,0.0,89,0.00,,,-99.99,0,WeatherLink 5.4,2013-09-10 09:00:00,
2013-09-10 05:10:00,75.5,72.4,29.84,North,-999,0.0,0.0,90,0.00,,,-99.99,0,WeatherLink 5.4,2013-09-10 09:10:00,
2013-09-10 05:15:00,75.5,72.4,29.84,North,-999,0.0,0.0,90,0.00,,,-99.99,0,WeatherLink 5.4,2013-09-10 09:15:00,
2013-09-10 05:29:00,75.4,72.3,29.84,North,-999,0.0,0.0,90,0.00,,,-99.99,0,WeatherLink 5.4,2013-09-10 09:29:00,
2013-09-10 05:30:00,75.4,72.3,29.84,North,-999,0.0,0.0,90,0.00,,,-99.99,0,WeatherLink 5.4,2013-09-10 09:30:00,
2013-09-10 05:40:00,75.3,72.2,29.84,North,-999,0.0,0.0,90,0.00,,,-99.99,0,WeatherLink 5.4,2013-09-10 09:40:00,
2013-09-10 05:44:00,75.3,72.2,29.84,North,-999,0.0,0.0,90,0.00,,,-99.99,0,WeatherLink 5.4,2013-09-10 09:44:00,
2013-09-10 05:59:00,75.3,72.2,29.85,North,-999,0.0,0.0,90,0.00,,,-99.99,0,WeatherLink 5.4,2013-09-10 09:59:00,
2013-09-10 06:00:00,75.1,72.0,29.85,North,-999,0.0,0.0,90,0.00,,,-99.99,0,WeatherLink 5.4,2013-09-10 10:00:00,
2013-09-10 06:10:00,75.1,72.0,29.85,North,-999,0.0,0.0,90,0.00,,,-99.99,3,WeatherLink 5.4,2013-09-10 10:10:00,
2013-09-10 06:14:00,75.1,72.0,29.85,North,-999,0.0,0.0,90,0.00,,,-99.99,3,WeatherLink 5.4,2013-09-10 10:14:00,
2013-09-10 06:29:00,75.0,71.9,29.86,North,-999,0.0,0.0,90,0.00,,,-99.99,9,WeatherLink 5.4,2013-09-10 10:29:00,
2013-09-10 06:30:00,74.9,71.8,29.86,North,-999,0.0,0.0,90,0.00,,,-99.99,17,WeatherLink 5.4,2013-09-10 10:30:00,
2013-09-10 06:40:00,75.1,72.0,29.86,North,-999,0.0,0.0,90,0.00,,,-99.99,27,WeatherLink 5.4,2013-09-10 10:40:00,
2013-09-10 06:44:00,75.1,72.0,29.86,North,-999,0.0,0.0,90,0.00,,,-99.99,27,WeatherLink 5.4,2013-09-10 10:44:00,
2013-09-10 06:59:00,75.1,72.0,29.87,North,-999,0.0,0.0,90,0.00,,,-99.99,35,WeatherLink 5.4,2013-09-10 10:59:00,
2013-09-10 07:00:00,75.1,72.0,29.87,North,-999,0.0,0.0,90,0.00,,,-99.99,37,WeatherLink 5.4,2013-09-10 11:00:00,
2013-09-10 07:10:00,75.2,72.1,29.87,North,-999,0.0,0.0,90,0.00,,,-99.99,73,WeatherLink 5.4,2013-09-10 11:10:00,
2013-09-10 07:14:00,75.2,72.1,29.87,North,-999,0.0,0.0,90,0.00,,,-99.99,73,WeatherLink 5.4,2013-09-10 11:14:00,
2013-09-10 07:29:00,75.4,72.3,29.88,North,-999,0.0,0.0,90,0.00,,,-99.99,199,WeatherLink 5.4,2013-09-10 11:29:00,
2013-09-10 07:30:00,75.9,72.4,29.88,North,-999,0.0,0.0,89,0.00,,,-99.99,206,WeatherLink 5.4,2013-09-10 11:30:00,
2013-09-10 07:40:00,76.3,72.1,29.88,North,-999,0.0,0.0,87,0.00,,,-99.99,282,WeatherLink 5.4,2013-09-10 11:40:00,
2013-09-10 07:45:00,76.3,72.1,29.88,North,-999,0.0,0.0,87,0.00,,,-99.99,282,WeatherLink 5.4,2013-09-10 11:45:00,
2013-09-10 07:50:00,76.9,72.4,29.89,North,-999,0.0,0.0,86,0.00,,,-99.99,290,WeatherLink 5.4,2013-09-10 11:50:00,
2013-09-10 08:00:00,77.8,72.6,29.89,North,-999,0.0,0.0,84,0.00,,,-99.99,319,WeatherLink 5.4,2013-09-10 12:00:00,
2013-09-10 08:10:00,78.5,72.9,29.89,North,-999,0.0,0.0,83,0.00,,,-99.99,390,WeatherLink 5.4,2013-09-10 12:10:00,
2013-09-10 08:14:00,78.5,72.9,29.89,North,-999,0.0,0.0,83,0.00,,,-99.99,390,WeatherLink 5.4,2013-09-10 12:14:00,
2013-09-10 08:29:00,79.4,73.4,29.89,North,-999,0.0,0.0,82,0.00,,,-99.99,430,WeatherLink 5.4,2013-09-10 12:29:00,
2013-09-10 08:30:00,80.2,73.5,29.89,North,-999,0.0,0.0,80,0.00,,,-99.99,195,WeatherLink 5.4,2013-09-10 12:30:00,
2013-09-10 08:40:00,80.9,73.8,29.89,North,-999,0.0,0.0,79,0.00,,,-99.99,206,WeatherLink 5.4,2013-09-10 12:40:00,
2013-09-10 08:44:00,80.9,73.8,29.89,North,-999,0.0,0.0,79,0.00,,,-99.99,206,WeatherLink 5.4,2013-09-10 12:44:00,
2013-09-10 08:59:00,81.4,73.9,29.89,North,-999,0.0,0.0,78,0.00,,,-99.99,209,WeatherLink 5.4,2013-09-10 12:59:00,
2013-09-10 09:00:00,82.1,73.8,29.89,East,90,1.0,8.0,76,0.00,,,-99.99,185,WeatherLink 5.4,2013-09-10 13:00:00,
2013-09-10 09:10:00,82.5,73.8,29.89,East,90,3.0,10.0,75,0.00,,,-99.99,176,WeatherLink 5.4,2013-09-10 13:10:00,
2013-09-10 09:14:00,82.5,73.8,29.89,East,90,3.0,10.0,75,0.00,,,-99.99,176,WeatherLink 5.4,2013-09-10 13:14:00,
2013-09-10 09:29:00,83.0,73.0,29.89,East,90,4.0,11.0,72,0.00,,,-99.99,586,WeatherLink 5.4,2013-09-10 13:29:00,
2013-09-10 09:30:00,84.0,73.6,29.88,East,90,5.0,11.0,71,0.00,,,-99.99,210,WeatherLink 5.4,2013-09-10 13:30:00,
2013-09-10 09:40:00,84.1,74.1,29.88,East,90,1.0,5.0,72,0.00,,,-99.99,178,WeatherLink 5.4,2013-09-10 13:40:00,
2013-09-10 09:44:00,84.1,74.1,29.88,East,90,1.0,5.0,72,0.00,,,-99.99,178,WeatherLink 5.4,2013-09-10 13:44:00,
2013-09-10 09:59:00,84.2,73.8,29.89,East,90,5.0,14.0,71,0.00,,,-99.99,616,WeatherLink 5.4,2013-09-10 13:59:00,
2013-09-10 10:00:00,85.2,73.4,29.89,East,90,3.0,11.0,68,0.00,,,-99.99,858,WeatherLink 5.4,2013-09-10 14:00:00,
2013-09-10 10:10:00,85.7,73.0,29.89,East,90,4.0,12.0,66,0.00,,,-99.99,259,WeatherLink 5.4,2013-09-10 14:10:00,
2013-09-10 10:14:00,85.7,73.0,29.89,East,90,4.0,12.0,66,0.00,,,-99.99,259,WeatherLink 5.4,2013-09-10 14:14:00,
2013-09-10 10:28:00,85.8,72.2,29.89,East,90,5.0,13.0,64,0.00,,,-99.99,201,WeatherLink 5.4,2013-09-10 14:28:00,
2013-09-10 10:30:00,86.0,72.4,29.89,East,90,6.0,13.0,64,0.00,,,-99.99,834,WeatherLink 5.4,2013-09-10 14:30:00,
2013-09-10 10:40:00,86.9,71.8,29.89,East,90,7.0,14.0,61,0.00,,,-99.99,999,WeatherLink 5.4,2013-09-10 14:40:00,
2013-09-10 10:45:00,86.9,71.8,29.89,East,90,7.0,14.0,61,0.00,,,-99.99,999,WeatherLink 5.4,2013-09-10 14:45:00,
2013-09-10 10:50:00,87.5,72.4,29.89,East,90,4.0,11.0,61,0.00,,,-99.99,971,WeatherLink 5.4,2013-09-10 14:50:00,
2013-09-10 11:00:00,87.6,72.5,29.89,East,90,4.0,12.0,61,0.00,,,-99.99,452,WeatherLink 5.4,2013-09-10 15:00:00,
2013-09-10 11:10:00,87.1,71.5,29.89,East,90,4.0,12.0,60,0.00,,,-99.99,543,WeatherLink 5.4,2013-09-10 15:10:00,
2013-09-10 11:15:00,87.1,71.5,29.89,East,90,4.0,12.0,60,0.00,,,-99.99,543,WeatherLink 5.4,2013-09-10 15:15:00,
2013-09-10 11:29:00,87.4,71.3,29.89,East,90,7.0,16.0,59,0.00,,,-99.99,1023,WeatherLink 5.4,2013-09-10 15:29:00,
2013-09-10 11:30:00,87.8,71.7,29.88,East,90,6.0,16.0,59,0.00,,,-99.99,1026,WeatherLink 5.4,2013-09-10 15:30:00,
2013-09-10 11:40:00,88.3,71.6,29.88,East,90,6.0,14.0,58,0.00,,,-99.99,943,WeatherLink 5.4,2013-09-10 15:40:00,
2013-09-10 11:44:00,88.3,71.6,29.88,East,90,6.0,14.0,58,0.00,,,-99.99,943,WeatherLink 5.4,2013-09-10 15:44:00,
2013-09-10 11:59:00,88.5,70.8,29.88,East,90,5.0,13.0,56,0.00,,,-99.99,976,WeatherLink 5.4,2013-09-10 15:59:00,
2013-09-10 12:00:00,88.8,72.1,29.87,East,90,6.0,16.0,58,0.00,,,-99.99,1024,WeatherLink 5.4,2013-09-10 16:00:00,
2013-09-10 12:10:00,88.9,72.2,29.87,East,90,6.0,12.0,58,0.00,,,-99.99,969,WeatherLink 5.4,2013-09-10 16:10:00,
2013-09-10 12:14:00,88.9,72.2,29.87,East,90,6.0,12.0,58,0.00,,,-99.99,969,WeatherLink 5.4,2013-09-10 16:14:00,
2013-09-10 12:29:00,88.9,72.7,29.86,East,90,6.0,16.0,59,0.00,,,-99.99,1035,WeatherLink 5.4,2013-09-10 16:29:00,
2013-09-10 12:30:00,89.1,71.9,29.86,East,90,7.0,16.0,57,0.00,,,-99.99,1066,WeatherLink 5.4,2013-09-10 16:30:00,
2013-09-10 12:40:00,88.9,71.2,29.86,East,90,5.0,13.0,56,0.00,,,-99.99,1049,WeatherLink 5.4,2013-09-10 16:40:00,
2013-09-10 12:44:00,88.9,71.2,29.86,East,90,5.0,13.0,56,0.00,,,-99.99,1049,WeatherLink 5.4,2013-09-10 16:44:00,
2013-09-10 12:59:00,89.1,71.4,29.85,East,90,5.0,14.0,56,0.00,,,-99.99,952,WeatherLink 5.4,2013-09-10 16:59:00,
2013-09-10 13:00:00,89.5,73.8,29.84,East,90,5.0,13.0,60,0.00,,,-99.99,851,WeatherLink 5.4,2013-09-10 17:00:00,
2013-09-10 13:10:00,88.7,73.0,29.84,East,90,6.0,21.0,60,0.00,,,-99.99,499,WeatherLink 5.4,2013-09-10 17:10:00,
2013-09-10 13:14:00,88.7,73.0,29.84,East,90,6.0,21.0,60,0.00,,,-99.99,499,WeatherLink 5.4,2013-09-10 17:14:00,
2013-09-10 13:28:00,88.2,72.6,29.84,East,90,5.0,16.0,60,0.00,,,-99.99,406,WeatherLink 5.4,2013-09-10 17:28:00,
2013-09-10 13:30:00,88.2,72.6,29.83,East,90,4.0,12.0,60,0.00,,,-99.99,999,WeatherLink 5.4,2013-09-10 17:30:00,
2013-09-10 13:40:00,88.5,73.8,29.83,East,90,4.0,17.0,62,0.00,,,-99.99,991,WeatherLink 5.4,2013-09-10 17:40:00,
2013-09-10 13:45:00,88.5,73.8,29.83,East,90,4.0,17.0,62,0.00,,,-99.99,991,WeatherLink 5.4,2013-09-10 17:45:00,
2013-09-10 13:50:00,88.7,74.5,29.83,East,90,2.0,14.0,63,0.00,,,-99.99,850,WeatherLink 5.4,2013-09-10 17:50:00,
2013-09-10 14:00:00,89.0,73.8,29.83,East,90,3.0,11.0,61,0.00,,,-99.99,651,WeatherLink 5.4,2013-09-10 18:00:00,
2013-09-10 14:10:00,88.8,73.6,29.83,East,90,2.0,12.0,61,0.00,,,-99.99,827,WeatherLink 5.4,2013-09-10 18:10:00,
2013-09-10 14:15:00,88.8,73.6,29.83,East,90,2.0,12.0,61,0.00,,,-99.99,827,WeatherLink 5.4,2013-09-10 18:15:00,
2013-09-10 14:29:00,88.9,73.7,29.82,East,90,2.0,10.0,61,0.00,,,-99.99,222,WeatherLink 5.4,2013-09-10 18:29:00,
2013-09-10 14:30:00,88.5,72.3,29.81,East,90,5.0,14.0,59,0.00,,,-99.99,903,WeatherLink 5.4,2013-09-10 18:30:00,
2013-09-10 14:40:00,88.6,71.9,29.81,East,90,5.0,14.0,58,0.00,,,-99.99,810,WeatherLink 5.4,2013-09-10 18:40:00,
2013-09-10 14:44:00,88.6,71.9,29.81,East,90,5.0,14.0,58,0.00,,,-99.99,810,WeatherLink 5.4,2013-09-10 18:44:00,
2013-09-10 14:59:00,88.4,71.7,29.81,East,90,6.0,18.0,58,0.00,,,-99.99,775,WeatherLink 5.4,2013-09-10 18:59:00,
2013-09-10 15:00:00,88.6,71.9,29.80,East,90,4.0,16.0,58,0.00,,,-99.99,773,WeatherLink 5.4,2013-09-10 19:00:00,
2013-09-10 15:10:00,88.8,71.1,29.80,East,90,3.0,10.0,56,0.00,,,-99.99,793,WeatherLink 5.4,2013-09-10 19:10:00,
2013-09-10 15:14:00,88.8,71.1,29.80,East,90,3.0,10.0,56,0.00,,,-99.99,793,WeatherLink 5.4,2013-09-10 19:14:00,
2013-09-10 15:29:00,88.7,75.4,29.80,ENE,67,2.0,13.0,65,0.00,,,-99.99,529,WeatherLink 5.4,2013-09-10 19:29:00,
2013-09-10 15:30:00,87.6,73.9,29.80,ENE,67,4.0,13.0,64,0.00,,,-99.99,698,WeatherLink 5.4,2013-09-10 19:30:00,
2013-09-10 15:40:00,87.2,73.5,29.80,East,90,5.0,18.0,64,0.00,,,-99.99,360,WeatherLink 5.4,2013-09-10 19:40:00,
2013-09-10 15:44:00,87.2,73.5,29.80,East,90,5.0,18.0,64,0.00,,,-99.99,360,WeatherLink 5.4,2013-09-10 19:44:00,
2013-09-10 15:59:00,86.3,73.1,29.80,East,90,4.0,12.0,65,0.00,,,-99.99,392,WeatherLink 5.4,2013-09-10 19:59:00,
2013-09-10 16:00:00,86.1,73.0,29.80,ENE,67,4.0,12.0,65,0.00,,,-99.99,555,WeatherLink 5.4,2013-09-10 20:00:00,
2013-09-10 16:10:00,86.1,74.3,29.80,East,90,4.0,13.0,68,0.00,,,-99.99,565,WeatherLink 5.4,2013-09-10 20:10:00,
2013-09-10 16:14:00,86.1,74.3,29.80,East,90,4.0,13.0,68,0.00,,,-99.99,565,WeatherLink 5.4,2013-09-10 20:14:00,
2013-09-10 16:28:00,86.5,72.4,29.80,ENE,67,2.0,12.0,63,0.00,,,-99.99,490,WeatherLink 5.4,2013-09-10 20:28:00,
2013-09-10 16:30:00,86.5,71.0,29.81,ENE,67,3.0,11.0,60,0.00,,,-99.99,343,WeatherLink 5.4,2013-09-10 20:30:00,
2013-09-10 16:40:00,86.7,71.6,29.81,East,90,3.0,12.0,61,0.00,,,-99.99,197,WeatherLink 5.4,2013-09-10 20:40:00,
2013-09-10 16:45:00,86.7,71.6,29.81,East,90,3.0,12.0,61,0.00,,,-99.99,197,WeatherLink 5.4,2013-09-10 20:45:00,
2013-09-10 16:50:00,86.9,71.8,29.80,East,90,2.0,8.0,61,0.00,,,-99.99,272,WeatherLink 5.4,2013-09-10 20:50:00,
2013-09-10 17:00:00,87.1,72.0,29.80,ESE,112,1.0,6.0,61,0.00,,,-99.99,384,WeatherLink 5.4,2013-09-10 21:00:00,
2013-09-10 17:10:00,87.4,72.8,29.80,ESE,112,1.0,7.0,62,0.00,,,-99.99,317,WeatherLink 5.4,2013-09-10 21:10:00,
2013-09-10 17:14:00,87.4,72.8,29.80,ESE,112,1.0,7.0,62,0.00,,,-99.99,317,WeatherLink 5.4,2013-09-10 21:14:00,
2013-09-10 17:29:00,87.6,73.0,29.80,East,90,0.0,2.0,62,0.00,,,-99.99,71,WeatherLink 5.4,2013-09-10 21:29:00,
2013-09-10 17:30:00,87.2,73.1,29.80,ENE,67,0.0,4.0,63,0.00,,,-99.99,59,WeatherLink 5.4,2013-09-10 21:30:00,
2013-09-10 17:40:00,86.9,73.3,29.80,East,90,1.0,8.0,64,0.00,,,-99.99,28,WeatherLink 5.4,2013-09-10 21:40:00,
2013-09-10 17:44:00,86.9,73.3,29.80,East,90,1.0,8.0,64,0.00,,,-99.99,28,WeatherLink 5.4,2013-09-10 21:44:00,
2013-09-10 17:59:00,86.3,72.7,29.80,East,90,2.0,7.0,64,0.00,,,-99.99,23,WeatherLink 5.4,2013-09-10 21:59:00,
2013-09-10 18:00:00,85.9,72.8,29.81,East,90,1.0,8.0,65,0.00,,,-99.99,20,WeatherLink 5.4,2013-09-10 22:00:00,
2013-09-10 18:10:00,85.6,72.0,29.81,East,90,3.0,11.0,64,0.00,,,-99.99,18,WeatherLink 5.4,2013-09-10 22:10:00,
2013-09-10 18:14:00,85.6,72.0,29.81,East,90,3.0,11.0,64,0.00,,,-99.99,18,WeatherLink 5.4,2013-09-10 22:14:00,
2013-09-10 18:29:00,85.5,71.5,29.81,East,90,3.0,14.0,63,0.00,,,-99.99,14,WeatherLink 5.4,2013-09-10 22:29:00,
2013-09-10 18:30:00,85.4,71.8,29.82,East,90,3.0,12.0,64,0.00,,,-99.99,9,WeatherLink 5.4,2013-09-10 22:30:00,
2013-09-10 18:40:00,85.0,71.5,29.82,East,90,6.0,13.0,64,0.00,,,-99.99,4,WeatherLink 5.4,2013-09-10 22:40:00,
2013-09-10 18:44:00,85.0,71.5,29.82,East,90,6.0,13.0,64,0.00,,,-99.99,4,WeatherLink 5.4,2013-09-10 22:44:00,
2013-09-10 18:59:00,84.7,71.2,29.82,East,90,4.0,13.0,64,0.00,,,-99.99,0,WeatherLink 5.4,2013-09-10 22:59:00,
2013-09-10 19:00:00,84.7,70.7,29.83,East,90,2.0,8.0,63,0.00,,,-99.99,0,WeatherLink 5.4,2013-09-10 23:00:00,
2013-09-10 19:10:00,84.5,70.0,29.83,East,90,1.0,10.0,62,0.00,,,-99.99,0,WeatherLink 5.4,2013-09-10 23:10:00,
2013-09-10 19:14:00,84.5,70.0,29.83,East,90,1.0,10.0,62,0.00,,,-99.99,0,WeatherLink 5.4,2013-09-10 23:14:00,
2013-09-10 19:28:00,84.4,70.4,29.83,East,90,1.0,10.0,63,0.00,,,-99.99,0,WeatherLink 5.4,2013-09-10 23:28:00,
2013-09-10 19:30:00,84.2,70.7,29.83,East,90,1.0,11.0,64,0.00,,,-99.99,0,WeatherLink 5.4,2013-09-10 23:30:00,
2013-09-10 19:40:00,83.9,70.9,29.83,East,90,2.0,8.0,65,0.00,,,-99.99,0,WeatherLink 5.4,2013-09-10 23:40:00,
2013-09-10 19:45:00,83.9,70.9,29.83,East,90,2.0,8.0,65,0.00,,,-99.99,0,WeatherLink 5.4,2013-09-10 23:45:00,
2013-09-10 19:50:00,83.8,71.2,29.84,East,90,1.0,7.0,66,0.00,,,-99.99,0,WeatherLink 5.4,2013-09-10 23:50:00,
2013-09-10 20:00:00,83.6,71.5,29.84,East,90,1.0,8.0,67,0.00,,,-99.99,0,WeatherLink 5.4,2013-09-11 00:00:00,
2013-09-10 20:10:00,83.5,70.5,29.84,North,-999,0.0,0.0,65,0.00,,,-99.99,0,WeatherLink 5.4,2013-09-11 00:10:00,
2013-09-10 20:14:00,83.5,70.5,29.84,North,-999,0.0,0.0,65,0.00,,,-99.99,0,WeatherLink 5.4,2013-09-11 00:14:00,
2013-09-10 20:29:00,83.4,70.4,29.84,North,-999,0.0,0.0,65,0.00,,,-99.99,0,WeatherLink 5.4,2013-09-11 00:29:00,
2013-09-10 20:30:00,83.4,70.8,29.85,North,-999,0.0,0.0,66,0.00,,,-99.99,0,WeatherLink 5.4,2013-09-11 00:30:00,
2013-09-10 20:40:00,83.4,71.3,29.85,North,-999,0.0,0.0,67,0.00,,,-99.99,0,WeatherLink 5.4,2013-09-11 00:40:00,
2013-09-10 20:44:00,83.4,71.3,29.85,North,-999,0.0,0.0,67,0.00,,,-99.99,0,WeatherLink 5.4,2013-09-11 00:44:00,
2013-09-10 20:59:00,83.2,71.5,29.86,North,-999,0.0,0.0,68,0.00,,,-99.99,0,WeatherLink 5.4,2013-09-11 00:59:00,
2013-09-10 21:00:00,83.0,71.8,29.86,North,-999,0.0,0.0,69,0.00,,,-99.99,0,WeatherLink 5.4,2013-09-11 01:00:00,
2013-09-10 21:10:00,82.6,71.8,29.86,North,-999,0.0,0.0,70,0.00,,,-99.99,0,WeatherLink 5.4,2013-09-11 01:10:00,
2013-09-10 21:14:00,82.6,71.8,29.86,North,-999,0.0,0.0,70,0.00,,,-99.99,0,WeatherLink 5.4,2013-09-11 01:14:00,
2013-09-10 21:29:00,82.4,72.0,29.86,SE,135,0.0,1.0,71,0.00,,,-99.99,0,WeatherLink 5.4,2013-09-11 01:29:00,
2013-09-10 21:30:00,82.2,72.3,29.87,North,-999,0.0,0.0,72,0.00,,,-99.99,0,WeatherLink 5.4,2013-09-11 01:30:00,
2013-09-10 21:40:00,82.0,72.5,29.87,North,-999,0.0,0.0,73,0.00,,,-99.99,0,WeatherLink 5.4,2013-09-11 01:40:00,
2013-09-10 21:44:00,82.0,72.5,29.87,North,-999,0.0,0.0,73,0.00,,,-99.99,0,WeatherLink 5.4,2013-09-11 01:44:00,
2013-09-10 21:59:00,81.6,72.5,29.87,North,-999,0.0,0.0,74,0.00,,,-99.99,0,WeatherLink 5.4,2013-09-11 01:59:00,
2013-09-10 22:00:00,81.3,72.6,29.87,North,-999,0.0,0.0,75,0.00,,,-99.99,0,WeatherLink 5.4,2013-09-11 02:00:00,
2013-09-10 22:10:00,81.2,72.5,29.87,North,-999,0.0,0.0,75,0.00,,,-99.99,0,WeatherLink 5.4,2013-09-11 02:10:00,
2013-09-10 22:14:00,81.2,72.5,29.87,North,-999,0.0,0.0,75,0.00,,,-99.99,0,WeatherLink 5.4,2013-09-11 02:14:00,
2013-09-10 22:29:00,81.2,72.5,29.87,North,-999,0.0,0.0,75,0.00,,,-99.99,0,WeatherLink 5.4,2013-09-11 02:29:00,
2013-09-10 22:30:00,81.3,72.6,29.87,North,-999,0.0,0.0,75,0.00,,,-99.99,0,WeatherLink 5.4,2013-09-11 02:30:00,
2013-09-10 22:40:00,81.2,72.5,29.87,North,-999,0.0,0.0,75,0.00,,,-99.99,0,WeatherLink 5.4,2013-09-11 02:40:00,
2013-09-10 22:45:00,81.2,72.5,29.87,North,-999,0.0,0.0,75,0.00,,,-99.99,0,WeatherLink 5.4,2013-09-11 02:45:00,
2013-09-10 22:59:00,81.2,72.9,29.87,North,-999,0.0,0.0,76,0.00,,,-99.99,0,WeatherLink 5.4,2013-09-11 02:59:00,
2013-09-10 23:00:00,81.1,73.2,29.86,North,-999,0.0,0.0,77,0.00,,,-99.99,0,WeatherLink 5.4,2013-09-11 03:00:00,
2013-09-10 23:10:00,80.6,73.1,29.86,North,-999,0.0,0.0,78,0.00,,,-99.99,0,WeatherLink 5.4,2013-09-11 03:10:00,
2013-09-10 23:14:00,80.6,73.1,29.86,North,-999,0.0,0.0,78,0.00,,,-99.99,0,WeatherLink 5.4,2013-09-11 03:14:00,
2013-09-10 23:29:00,80.1,73.0,29.86,North,-999,0.0,0.0,79,0.00,,,-99.99,0,WeatherLink 5.4,2013-09-11 03:29:00,
2013-09-10 23:30:00,79.8,73.1,29.86,North,-999,0.0,0.0,80,0.00,,,-99.99,0,WeatherLink 5.4,2013-09-11 03:30:00,
2013-09-10 23:40:00,79.5,73.2,29.86,North,-999,0.0,0.0,81,0.00,,,-99.99,0,WeatherLink 5.4,2013-09-11 03:40:00,
2013-09-10 23:44:00,79.5,73.2,29.86,North,-999,0.0,0.0,81,0.00,,,-99.99,0,WeatherLink 5.4,2013-09-11 03:44:00,
2013-09-10 23:59:00,79.3,73.0,29.86,North,-999,0.0,0.0,81,0.00,,,-99.99,0,WeatherLink 5.4,2013-09-11 03:59:00,